KC3ULW-13 Weather Reports


time (UTC)temp
C
wind
direction
speed
KPH
gust
KPH
rain 1hr
cm
rain 24hr
cm
rain mn
cm
humidity
%
barometer
mb
20260507162409 15 135 4.8 4.8 0.00 0.00 0.00 43 1014.3
20260507161907 15 135 4.8 4.8 0.00 0.00 0.00 43 1014.3
20260507161403 15 243 4.8 8.0 0.00 0.00 0.00 43 1014.3
20260507160900 15 177 1.6 3.2 0.00 0.00 0.00 44 1014.4
20260507160355 14 191 4.8 8.0 0.00 0.00 0.00 43 1014.5
20260507155852 13 328 3.2 4.8 0.00 0.00 0.00 44 1014.6
20260507155348 13 239 3.2 3.2 0.00 0.00 0.00 45 1014.7
20260507154845 15 281 4.8 8.0 0.00 0.00 0.00 45 1014.6
20260507154342 15 220 6.4 9.7 0.00 0.00 0.00 43 1014.7
20260507153839 13 225 4.8 4.8 0.00 0.00 0.00 47 1014.4
20260507153535 14 248 16.1 22.5 0.00 0.00 0.00 45 1014.8
20260507153336 14 248 16.1 22.5 0.00 0.00 0.00 45 1014.8
20260507153118 13 254 9.7 12.9 0.00 0.00 0.00 45 1014.6
20260507152832 13 254 9.7 12.9 0.00 0.00 0.00 45 1014.6
20260507152328 13 170 3.2 4.8 0.00 0.00 0.00 48 1014.5
20260507152003 12 2 6.4 8.0 0.00 0.00 0.00 47 1014.9
20260507151825 12 2 6.4 8.0 0.00 0.00 0.00 47 1014.9
20260507151321 13 294 6.4 9.7 0.00 0.00 0.00 48 1015.1
20260507150818 13 220 1.6 3.2 0.00 0.00 0.00 46 1015.0
20260507150314 14 243 4.8 8.0 0.00 0.00 0.00 44 1015.1
20260507145811 13 203 4.8 4.8 0.00 0.00 0.00 48 1015.1
20260507145307 13 223 6.4 9.7 0.00 0.00 0.00 45 1015.2
20260507144804 13 247 6.4 8.0 0.00 0.00 0.00 47 1015.1
20260507144302 13 258 9.7 14.5 0.00 0.00 0.00 45 1015.6
20260507143758 13 345 8.0 11.3 0.00 0.00 0.00 47 1015.5
20260507143255 13 196 0.0 0.0 0.00 0.00 0.00 50 1015.5
20260507142751 13 341 8.0 11.3 0.00 0.00 0.00 45 1015.5
20260507142248 13 82 1.6 3.2 0.00 0.00 0.00 51 1015.6
20260507141744 12 217 3.2 3.2 0.00 0.00 0.00 51 1015.5
20260507141242 13 177 3.2 4.8 0.00 0.00 0.00 51 1015.8
20260507140737 12 30 1.6 1.6 0.00 0.00 0.00 53 1016.0
20260507140235 12 198 1.6 1.6 0.00 0.00 0.00 54 1015.9
20260507135732 12 300 8.0 11.3 0.00 0.00 0.00 53 1015.8
20260507135230 12 213 0.0 0.0 0.00 0.00 0.00 56 1016.0
20260507134725 12 187 3.2 3.2 0.00 0.00 0.00 58 1015.9
20260507134222 12 130 1.6 1.6 0.00 0.00 0.00 58 1016.2
20260507133718 12 223 1.6 3.2 0.00 0.00 0.00 59 1016.0
20260507133215 11 209 1.6 1.6 0.00 0.00 0.00 61 1016.2
20260507132713 11 169 4.8 8.0 0.00 0.00 0.00 62 1016.2
20260507132209 11 191 3.2 3.2 0.00 0.00 0.00 63 1016.2
20260507131706 11 156 3.2 4.8 0.00 0.00 0.00 66 1016.4
20260507131203 10 183 4.8 8.0 0.00 0.00 0.00 66 1016.3
20260507130700 10 212 3.2 3.2 0.00 0.00 0.00 67 1016.3
20260507130157 10 178 0.0 0.0 0.00 0.00 0.00 69 1016.1
20260507125656 8 195 1.6 3.2 0.00 0.00 0.00 73 1016.3
20260507125153 8 179 0.0 1.6 0.00 0.00 0.00 76 1016.1
20260507124649 8 196 1.6 3.2 0.00 0.00 0.00 78 1016.3
20260507124147 7 198 1.6 1.6 0.00 0.00 0.00 80 1016.4
20260507123645 7 200 1.6 3.2 0.00 0.00 0.00 82 1016.4
20260507123142 6 192 1.6 3.2 0.00 0.00 0.00 84 1016.4
20260507122637 6 189 0.0 0.0 0.00 0.00 0.00 86 1016.2
20260507122133 6 188 0.0 0.0 0.00 0.00 0.00 88 1016.4
20260507121629 6 182 0.0 0.0 0.00 0.00 0.00 89 1016.3
20260507121125 5 178 0.0 0.0 0.00 0.00 0.00 89 1016.2
20260507120622 5 177 0.0 0.0 0.00 0.00 0.00 89 1016.4
20260507120118 5 178 0.0 0.0 0.00 0.00 0.00 90 1016.4
20260507115615 5 178 0.0 0.0 0.00 0.00 0.00 90 1016.2
20260507115111 5 178 0.0 0.0 0.00 0.00 0.00 90 1016.4
20260507114607 5 170 0.0 0.0 0.00 0.00 0.00 90 1016.2
20260507114104 4 164 0.0 0.0 0.00 0.00 0.00 90 1016.4
20260507113601 4 164 0.0 0.0 0.00 0.00 0.00 90 1016.3
20260507113058 4 157 0.0 0.0 0.00 0.00 0.00 90 1016.1
20260507112556 4 156 0.0 0.0 0.00 0.00 0.00 90 1016.2
20260507112052 3 156 0.0 0.0 0.00 0.00 0.00 90 1016.3
20260507111549 3 156 0.0 0.0 0.00 0.00 0.00 90 1016.0
20260507111046 3 111 0.0 0.0 0.00 0.00 0.00 90 1016.1
20260507110543 3 111 0.0 0.0 0.00 0.00 0.00 90 1016.2
20260507110039 3 111 0.0 0.0 0.00 0.00 0.00 90 1016.0
20260507105536 3 96 0.0 0.0 0.00 0.00 0.00 90 1016.0
20260507105032 3 96 0.0 0.0 0.00 0.00 0.00 90 1015.9
20260507104530 3 96 0.0 0.0 0.00 0.00 0.00 90 1015.9
20260507104026 3 96 0.0 0.0 0.00 0.00 0.00 90 1015.8
20260507103522 3 96 0.0 0.0 0.00 0.00 0.00 90 1015.7
20260507103019 3 96 0.0 0.0 0.00 0.00 0.00 90 1015.5
20260507102516 3 96 0.0 0.0 0.00 0.00 0.00 89 1015.7
20260507102012 3 95 0.0 0.0 0.00 0.00 0.00 89 1015.9
20260507101507 3 95 0.0 0.0 0.00 0.00 0.00 89 1015.9
20260507101004 3 95 0.0 0.0 0.00 0.00 0.00 89 1015.8
20260507100501 3 95 0.0 0.0 0.00 0.00 0.00 89 1015.7
20260507095959 3 96 0.0 0.0 0.00 0.00 0.00 89 1015.7
20260507095457 3 96 0.0 0.0 0.00 0.00 0.00 89 1015.7
20260507094953 3 96 0.0 0.0 0.00 0.00 0.00 89 1015.7
20260507094449 3 96 0.0 0.0 0.00 0.00 0.00 89 1015.6
20260507093947 3 96 0.0 0.0 0.00 0.00 0.00 89 1015.7
20260507093444 4 96 0.0 0.0 0.00 0.00 0.00 89 1015.6
20260507092943 3 96 0.0 0.0 0.00 0.00 0.00 89 1015.7
20260507092438 4 96 0.0 0.0 0.00 0.00 0.00 89 1015.6
20260507091935 4 96 0.0 0.0 0.00 0.00 0.00 88 1015.7
20260507091432 4 96 0.0 0.0 0.00 0.00 0.00 88 1015.8
20260507090928 4 96 0.0 0.0 0.00 0.00 0.00 88 1016.0
20260507090424 4 96 0.0 0.0 0.00 0.00 0.00 88 1015.7
20260507085920 5 96 0.0 0.0 0.00 0.00 0.00 88 1015.7
20260507085418 5 96 0.0 0.0 0.00 0.00 0.00 88 1015.8
20260507084915 5 96 0.0 0.0 0.00 0.00 0.00 88 1015.7
20260507084412 5 96 0.0 0.0 0.00 0.00 0.00 87 1015.8
20260507083909 5 96 0.0 0.0 0.00 0.00 0.00 87 1015.9
20260507083405 5 96 0.0 0.0 0.00 0.00 0.00 87 1015.9
20260507082901 5 96 0.0 0.0 0.00 0.00 0.00 87 1015.7
20260507082357 5 96 0.0 0.0 0.00 0.00 0.00 86 1015.7
20260507081855 5 96 0.0 0.0 0.00 0.00 0.00 86 1015.8
20260507081350 5 96 0.0 0.0 0.00 0.00 0.00 86 1015.6
20260507080848 5 96 0.0 0.0 0.00 0.00 0.00 86 1015.7
20260507080343 5 97 0.0 0.0 0.00 0.00 0.00 86 1015.6
20260507075839 5 97 0.0 0.0 0.00 0.00 0.00 85 1015.8
20260507075335 5 97 0.0 0.0 0.00 0.00 0.00 85 1015.9
20260507074832 5 97 0.0 0.0 0.00 0.00 0.00 85 1015.7
20260507074329 5 96 0.0 0.0 0.00 0.00 0.00 84 1015.8
20260507073826 6 96 0.0 0.0 0.00 0.00 0.00 84 1015.8
20260507073323 6 96 0.0 0.0 0.00 0.00 0.00 84 1015.7
20260507072820 6 96 0.0 0.0 0.00 0.00 0.00 83 1015.7
20260507072318 6 96 0.0 0.0 0.00 0.00 0.00 82 1015.8
20260507071815 6 96 0.0 0.0 0.00 0.00 0.00 82 1015.9
20260507071311 6 96 0.0 0.0 0.00 0.00 0.00 81 1015.8
20260507070808 6 97 0.0 0.0 0.00 0.00 0.00 80 1015.7
20260507070306 6 97 0.0 0.0 0.00 0.00 0.00 79 1015.8
20260507065802 6 97 0.0 0.0 0.00 0.00 0.00 79 1015.8
20260507065259 7 97 0.0 0.0 0.00 0.00 0.00 78 1015.9
20260507064756 7 97 0.0 0.0 0.00 0.00 0.00 77 1015.8
20260507064255 7 97 1.6 1.6 0.00 0.00 0.00 77 1016.0
20260507063752 7 97 0.0 1.6 0.00 0.00 0.00 77 1015.8
20260507063249 7 97 0.0 1.6 0.00 0.00 0.00 77 1015.8
20260507062745 8 97 0.0 0.0 0.00 0.00 0.00 76 1016.0
20260507062243 8 97 0.0 0.0 0.00 0.00 0.00 74 1015.8
20260507061741 8 97 0.0 0.0 0.00 0.00 0.00 73 1015.7
20260507061238 8 97 0.0 0.0 0.00 0.00 0.00 74 1015.9
20260507060736 8 97 0.0 0.0 0.00 0.00 0.00 74 1016.0
20260507060233 8 97 0.0 0.0 0.00 0.00 0.00 73 1015.8
20260507055729 8 97 0.0 0.0 0.00 0.00 0.00 73 1015.8
20260507055224 8 97 0.0 0.0 0.00 0.00 0.00 73 1016.0
20260507054721 8 97 0.0 0.0 0.00 0.00 0.00 72 1016.2
20260507054218 8 97 0.0 0.0 0.00 0.00 0.00 71 1016.2
20260507053715 9 97 0.0 0.0 0.00 0.00 0.00 69 1016.4
20260507053213 9 79 0.0 0.0 0.00 0.00 0.00 67 1016.2
20260507052712 9 99 0.0 1.6 0.00 0.00 0.00 67 1016.8
20260507052207 9 99 0.0 0.0 0.00 0.00 0.00 67 1016.4
20260507051706 9 99 0.0 0.0 0.00 0.00 0.00 66 1016.7
20260507051202 9 90 0.0 0.0 0.00 0.00 0.00 67 1016.6
20260507050659 9 90 0.0 0.0 0.00 0.00 0.00 68 1016.6
20260507050155 9 90 1.6 1.6 0.00 0.00 0.00 67 1016.5
20260507045652 9 88 1.6 1.6 0.00 0.00 0.00 67 1016.7
20260507045149 9 130 1.6 1.6 0.00 0.00 0.00 68 1016.5
20260507044646 10 129 0.0 1.6 0.00 0.00 0.00 69 1016.6
20260507044143 9 129 0.0 0.0 0.00 0.00 0.00 66 1016.4
20260507043638 9 129 0.0 0.0 0.00 0.00 0.00 65 1016.4
20260507043136 9 116 0.0 1.6 0.00 0.00 0.00 66 1016.3
20260507042632 9 110 0.0 0.0 0.00 0.00 0.00 67 1016.4
20260507042127 10 110 0.0 0.0 0.00 0.00 0.00 70 1016.5
20260507041624 10 110 0.0 0.0 0.00 0.00 0.00 65 1016.5
20260507041121 10 110 0.0 1.6 0.00 0.00 0.00 64 1016.5
20260507040618 10 107 0.0 0.0 0.00 0.00 0.00 65 1016.7
20260507040114 10 107 1.6 1.6 0.00 1.24 1.24 64 1016.3
20260507035610 10 108 0.0 1.6 0.00 1.24 1.24 63 1016.4
20260507035106 10 107 0.0 0.0 0.00 1.24 1.24 63 1016.4
20260507034604 10 154 0.0 0.0 0.00 1.24 1.24 63 1016.3
20260507034102 10 154 0.0 0.0 0.00 1.24 1.24 64 1016.3
20260507033600 10 358 3.2 3.2 0.00 1.24 1.24 62 1016.2
20260507033056 10 176 0.0 0.0 0.00 1.24 1.24 65 1016.4
20260507032554 10 163 0.0 0.0 0.00 1.24 1.24 65 1016.2
20260507032049 10 142 0.0 0.0 0.00 1.24 1.24 65 1016.0
20260507031546 10 9 1.6 4.8 0.00 1.24 1.24 64 1016.1
20260507031043 10 52 0.0 1.6 0.00 1.24 1.24 64 1016.3
20260507030540 10 22 4.8 4.8 0.00 1.24 1.24 64 1015.9
20260507030038 10 111 0.0 0.0 0.00 1.24 1.24 65 1015.8
20260507025534 10 78 1.6 1.6 0.00 1.24 1.24 64 1015.9
20260507025032 10 107 0.0 1.6 0.00 1.24 1.24 64 1015.7
20260507024530 10 93 1.6 1.6 0.00 1.24 1.24 63 1016.0
20260507024026 10 99 0.0 0.0 0.00 1.24 1.24 63 1015.7
20260507023522 10 111 1.6 1.6 0.00 1.24 1.24 63 1016.0
20260507023020 10 105 0.0 1.6 0.00 1.24 1.24 63 1015.9
20260507022516 10 100 0.0 0.0 0.00 1.24 1.24 63 1015.8
20260507022012 10 86 1.6 3.2 0.00 1.24 1.24 62 1015.7
20260507021508 10 88 1.6 1.6 0.00 1.24 1.24 64 1015.5
20260507021005 10 99 0.0 1.6 0.00 1.24 1.24 64 1015.7
20260507020502 11 99 1.6 1.6 0.00 1.24 1.24 67 1015.8
20260507015959 11 99 0.0 0.0 0.00 1.24 1.24 65 1015.5
20260507015457 11 100 0.0 0.0 0.00 1.24 1.24 64 1015.5
20260507014954 11 59 1.6 1.6 0.00 1.24 1.24 63 1015.5
20260507014450 11 95 0.0 1.6 0.00 1.24 1.24 61 1015.2
20260507013946 11 86 1.6 3.2 0.00 1.24 1.24 61 1015.1
20260507013443 11 339 3.2 3.2 0.00 1.24 1.24 61 1015.1